Weather History for Shreveport, LA

Change the Weather History Date:

Saturday, July 13, 2013

  Actual Average Record
Temperature  
Mean Temperature 79 °F 83 °F  
Max Temperature 93 °F 93 °F 107 °F (1901)
Min Temperature 65 °F 73 °F 63 °F (1973)
Degree Days  
Heating Degree Days 0 0  
Month to date heating degree days 0 0  
Since 1 June heating degree days 0 0  
Since 1 July heating degree days 0 0  
Cooling Degree Days 14 18  
Month to date cooling degree days 211 229  
Year to date cooling degree days 1096 1071  
Since 1 June cooling degree days 709 673  
Growing Degree Days 28 (Base 50)    
Moisture  
Dew Point 61 °F    
Average Humidity 58    
Maximum Humidity 87    
Minimum Humidity 28    
Precipitation  
Precipitation 0.00 in 0.11 in 3.74 in (1926)
Month to date precipitation T 1.71  
Year to date precipitation 24.60 29.32  
Snow  
Snow 0.00 in - - ()
Month to date snowfall 0.0  
Since 1 June snowfall 0.0  
Since 1 July snowfall 0.0  
Snow Depth 0.00 in    
Sea Level Pressure  
Sea Level Pressure 29.94 in    
Wind  
Wind Speed 4 mph (ENE)    
Max Wind Speed 13 mph    
Max Gust Speed 16 mph    
Visibility 10 miles    
Events      
T = Trace of Precipitation, MM = Missing Value Source: NWS Daily Summary

Daily Weather History Graph

Daily Weather History Graph

Search for Another Location

Airport:

Trip Planner

Search our weather history database for the weather conditions in past years. The results will help you decide how hot, cold, wet, or windy it might be!

Date:

Astronomy

Jul. 13, 2013 Rise Set
Actual Time 6:17 AM CDT 8:24 PM CDT
Civil Twilight 5:49 AM CDT 8:51 PM CDT
Nautical Twilight 5:15 AM CDT 9:25 PM CDT
Astronomical Twilight 4:39 AM CDT 10:02 PM CDT
Moon 11:14 AM CDT (7/13) 11:27 PM CDT (7/13)
Length of Visible Light 15h 01m
Length of Day
14h 06m
Waxing Crescent, 26% of the Moon is Illuminated
Jul 13
Waxing Crescent
Jul 15
First Quarter
Jul 22
Full
Jul 29
Last Quarter
Aug 6
New

Hourly Weather History & Observations

Time (CDT) Temp. Heat Index Dew Point Humidity Pressure Visibility Wind Dir Wind Speed Gust Speed Precip Events Conditions
12:56 AM 75.9 °F - 60.1 °F 58% 29.95 in 10.0 mi East 5.8 mph - N/A   Clear
1:56 AM 73.0 °F - 60.1 °F 64% 29.95 in 10.0 mi East 4.6 mph - N/A   Clear
2:56 AM 72.0 °F - 61.0 °F 68% 29.94 in 10.0 mi Calm Calm - N/A   Clear
3:56 AM 66.9 °F - 60.1 °F 79% 29.95 in 10.0 mi Calm Calm - N/A   Clear
4:56 AM 66.9 °F - 60.1 °F 79% 29.96 in 10.0 mi Calm Calm - N/A   Clear
5:56 AM 64.9 °F - 60.1 °F 84% 29.97 in 10.0 mi Calm Calm - N/A   Clear
6:56 AM 70.0 °F - 60.1 °F 71% 29.98 in 10.0 mi Calm Calm - N/A   Clear
7:56 AM 73.9 °F - 63.0 °F 68% 29.99 in 10.0 mi NNE 3.5 mph - N/A   Clear
8:56 AM 79.0 °F - 64.0 °F 60% 29.99 in 10.0 mi Calm Calm - N/A   Clear
9:56 AM 84.0 °F 84.9 °F 63.0 °F 49% 29.99 in 10.0 mi ENE 3.5 mph - N/A   Scattered Clouds
10:56 AM 86.0 °F 85.4 °F 59.0 °F 40% 29.98 in 10.0 mi Variable 3.5 mph - N/A   Partly Cloudy
11:56 AM 87.1 °F 86.5 °F 59.0 °F 39% 29.98 in 10.0 mi Calm Calm - N/A   Partly Cloudy
12:56 PM 90.0 °F 88.8 °F 57.9 °F 34% 29.96 in 10.0 mi NNW 9.2 mph - N/A   Partly Cloudy
1:56 PM 91.9 °F 90.8 °F 57.9 °F 32% 29.95 in 10.0 mi Variable 6.9 mph - N/A   Partly Cloudy
2:56 PM 91.0 °F 89.7 °F 57.0 °F 32% 29.93 in 10.0 mi Variable 3.5 mph - N/A   Mostly Cloudy
3:56 PM 93.0 °F 91.1 °F 55.0 °F 28% 29.91 in 10.0 mi Calm Calm - N/A   Mostly Cloudy
4:56 PM 93.0 °F 92.0 °F 57.9 °F 31% 29.91 in 10.0 mi Variable 6.9 mph - N/A   Mostly Cloudy
5:56 PM 90.0 °F 89.7 °F 60.1 °F 37% 29.90 in 10.0 mi North 5.8 mph - N/A   Overcast
6:56 PM 86.0 °F 86.3 °F 62.1 °F 44% 29.89 in 10.0 mi East 5.8 mph - N/A   Overcast
7:56 PM 84.9 °F 85.9 °F 63.0 °F 48% 29.90 in 10.0 mi East 6.9 mph - N/A   Overcast
8:56 PM 82.0 °F 83.4 °F 64.0 °F 54% 29.91 in 10.0 mi East 5.8 mph - N/A   Overcast
9:56 PM 80.1 °F 81.9 °F 64.9 °F 60% 29.92 in 10.0 mi East 3.5 mph - N/A   Overcast
10:56 PM 79.0 °F - 66.0 °F 64% 29.93 in 10.0 mi Calm Calm - N/A   Overcast
11:56 PM 80.1 °F 82.1 °F 66.0 °F 62% 29.93 in 10.0 mi ESE 10.4 mph - N/A   Overcast